sat.trackr.live / text

‹ back to catalog

STARLINK-34741

NORAD 65097 · 2025-167V

PAYLOAD ACTIVE UNKNOWN

§ Identity

Operator
Country
US
Launch date
2025-08-04
Launch site
AFETR
Launch vehicle
Mass (kg)
RCS (m²)

Purposes: comms

External: N2YO · Heavens-Above · Gunter

§ Orbital elements

Epoch: 2026-05-25T02:29:07.971072Z

Period
93.37 min
Inclination
53.1602°
Eccentricity
0.0001090
Mean motion
15.42188897 rev/d
Perigee alt
438.9 km
Apogee alt
440.4 km
Semi-major
6,817.8 km
B*
9.3624e-4
RAAN
29.2701°
Arg perigee
85.4896°
Mean anomaly
274.6234°
Rev number
4,521

§ Raw data

STARLINK-347411 65097U 25167V   26145.10356448  .00040585  00000+0  93624-3 0  99952 65097  53.1602  29.2701 0001090  85.4896 274.6234 15.42188897 45210

JSON: /api/v1/satellites/65097 · /tle

For live sub-satellite position, see the globe view (requires WebGL).

§ Visibility from observer

Set your observer location to see the next 7 days of passes ≥ 10°. The values pass through the URL so the page stays shareable.

No JS? Fill the form by hand. The geolocation button needs JavaScript.